Lexington Weather

Lexington, Massachusetts, USA

70°F
8/17/2022 6:52pm 
  • Lexington Conditions: Overcast
  • Temperature: 69.6°F / 20.9°CColder 0.6°F than last hour.
  • Dew Point: 57.4°FDecreased 1.8°Fsince last hour.
  • Relative Humidity: 65%Decreased 3.0% since last hour.
  • Wind: Calm, 10-min avg: Calm, gust: 3 mph
  • Barometer: 29.85 in Steady
  • Visibility: 10 miles
  • Rain Today: 0.00 in
  •   

Regional Weather Roundup
for Boston, MA

        
000
ASUS41 KBOX 141010
RWRBOX

REGIONAL WEATHER ROUNDUP
NATIONAL WEATHER SERVICE BOSTON/NORTON MA
600 AM EDT SUN AUG 14 2022

NOTE:  "FAIR" INDICATES FEW OR NO CLOUDS BELOW 12,000 FEET WITH NO 
SIGNIFICANT WEATHER AND/OR OBSTRUCTIONS TO VISIBILITY.

MAZALL-141100-
EASTERN MASSACHUSETTS
  
CITY           SKY/WX    TMP DP  RH WIND       PRES   REMARKS
BOSTON         PTCLDY    63  54  72 W8        30.05S                  
BEVERLY        CLEAR     55  53  93 CALM      30.04R                  
LAWRENCE       CLEAR     57  54  89 S3        30.07R                  
BEDFORD        CLEAR     54  52  93 CALM      30.05R                  
BLUE HILL      NOT AVBL                                               
NORWOOD        FOG       48  45  89 CALM      30.06S VSB 1/2          
MARSHFIELD     CLEAR     55  54  94 W3        30.05R                  
PLYMOUTH       CLEAR     54  52  93 CALM      30.05S                  
TAUNTON          N/A    N/A N/A N/A MISG      30.06R                  
NEW BEDFORD    CLEAR     51  51 100 CALM      30.05R FOG              
$$

MAZALL-141100-
CAPE COD AND THE ISLANDS
  
CITY           SKY/WX    TMP DP  RH WIND       PRES   REMARKS
FALMOUTH       CLEAR     54  54 100 CALM      30.05S                  
HYANNIS        CLEAR     54  52  93 CALM      30.04R                  
CHATHAM        CLEAR     59  57  93 CALM      30.05R                  
NANTUCKET      CLEAR     62  59  90 CALM      30.05S                  
MARTHAS VNYRD  CLEAR     49  47  93 CALM      30.05S                  
$$
 
MAZALL-141100-
CENTRAL AND WESTERN MASSACHUSETTS
  
CITY           SKY/WX    TMP DP  RH WIND       PRES   REMARKS
WORCESTER      CLEAR     59  51  75 NW9       30.08S                  
FITCHBURG      CLEAR     55  50  83 N3        30.08R                  
ORANGE         CLEAR     50  48  93 CALM      30.10R                  
SPRINGFIELD    CLEAR     49  48  94 CALM      30.07R                  
WESTFIELD      NOT AVBL                                               
NORTH ADAMS    CLEAR     49  48  97 CALM      30.11R                  
PITTSFIELD     FOG       49  47  93 CALM      30.10R VSB 1/2          
$$
 
RIZALL-141100-
RHODE ISLAND
  
CITY           SKY/WX    TMP DP  RH WIND       PRES   REMARKS
PROVIDENCE     CLEAR     57  54  89 W3        30.07R                  
NEWPORT        CLEAR     55  54  96 CALM      30.06R                  
BLOCK ISLAND   CLEAR     60  56  86 NW6       30.08R                  
SMITHFIELD     CLEAR     52  51  97 CALM      30.08R                  
WESTERLY       CLEAR     53  51  93 CALM      30.07R                  
$$
 
CTZALL-141100-
CONNECTICUT
  
CITY           SKY/WX    TMP DP  RH WIND       PRES   REMARKS
BRADLEY INTL   PTCLDY    54  51  90 CALM      30.09R                  
HARTFORD       CLEAR     57  53  86 CALM      30.09R                  
BRIDGEPORT     CLEAR     60  54  80 N3        30.08R                  
DANBURY        CLEAR     54  51  90 CALM      30.10S                  
GROTON         CLEAR     58  52  80 N3        30.07R                  
NEW HAVEN      CLEAR     58  55  90 CALM      30.09R                  
CHESTER        FAIR      57  54  88 NW3       30.09R                  
MERIDEN        CLEAR     53  50  89 CALM      30.09R                  
WILLIMANTIC    CLOUDY    51  51 100 CALM      30.09R                  
OXFORD         CLEAR     52  50  93 CALM      30.10S                  
$$

MEZ002-015-021-024-NHZ003-005-008-011-012-014-VTZ005-008-141100-
NORTHERN NEW ENGLAND
  
CITY           SKY/WX    TMP DP  RH WIND       PRES   REMARKS
PORTLAND ME    PTCLDY    58  54  86 W6        30.03S                  
BANGOR ME      MOCLDY    61  60  97 SW5       30.01S                  
CONCORD NH     CLEAR     52  50  93 CALM      30.06S                  
MANCHESTER NH  CLEAR     59  53  80 NW5       30.04S                  
NASHUA NH      CLEAR     56  56 100 CALM      30.07R                  
PORTSMOUTH NH  PTCLDY    57  53  86 NW3       30.04R                  
JAFFREY NH     CLEAR     50  47  89 CALM      30.09S                  
KEENE NH       FOG       48  48 100 CALM        N/A  VSB 1/4          
BURLINGTON VT  PTCLDY    53  51  93 CALM      30.09R                  
MT. WASHINGTON FOG       41  41 100 N16         N/A  VSB 1/8          
$$

NYZ052-076-141100-
EASTERN NEW YORK
  
CITY           SKY/WX    TMP DP  RH WIND       PRES   REMARKS
ALBANY         CLEAR     56  53  90 CALM      30.09R                  
NEW YORK CITY  PTCLDY    70  51  51 NW5       30.06S                  
$$
 
ANZALL-141100-
MARINE OBSERVATIONS
  
STATION/POSITION TIME  TEMP    WIND        PRES    VSBY  WAVE
                       AIR SEA DIR/SP/G                  HT/PER
                 (UTC) (F)     (DEG/KT/KT) (MB)    (MI)  (FT/S)
BOSTON BUOY      NOT AVBL
BUZZARDS BAY     NOT AVBL
NANTUCKET SOUND  NOT AVBL
MASS BAY-STELLWA NOT AVBL
ISLE OF SHOALS   NOT AVBL
S OF BLOCK IS    NOT AVBL
$$

......................KEY.........................
  SKY/WX - SKY CONDITION/PRESENT WEATHER
  TMP    - TEMPERATURE IN FAHRENHEIT
  DWPT   - DEWPOINT IN FAHRENHEIT
  RH     - RELATIVE HUMIDITY IN PERCENT
  WIND   - DIRECTION AND SPEED IN MPH
  PRES   - MEAN SEA LEVEL PRESSURE IN INCHES OF HG
  WCI    - WIND CHILL INDEX
  VSB    - VISIBILITY IN MILES
  HX     - HEAT INDEX
  TC     - TEMPERATURE IN CELSIUS
  VRB    - VARIABLE WIND DIRECTION
  N/A    - NOT AVAILABLE
  
      

Other recent Regional Weather Roundups

Wed Aug 17, 6:10pm

Wed Aug 17, 5:10pm

Wed Aug 17, 4:10pm

Wed Aug 17, 3:10pm

Wed Aug 17, 2:10pm

Wed Aug 17, 1:10pm

Wed Aug 17, 12:10pm

Wed Aug 17, 11:10am

Wed Aug 17, 10:10am

Wed Aug 17, 9:10am

Wed Aug 17, 8:10am

Wed Aug 17, 7:10am

Wed Aug 17, 6:10am

Wed Aug 17, 5:10am

Wed Aug 17, 4:10am

Wed Aug 17, 3:10am

Wed Aug 17, 2:10am

Wed Aug 17, 1:10am

Wed Aug 17, 12:10am

Tue Aug 16, 11:10pm

Tue Aug 16, 10:10pm

Tue Aug 16, 9:10pm

Tue Aug 16, 8:10pm

Tue Aug 16, 7:10pm

Tue Aug 16, 6:10pm

Tue Aug 16, 5:10pm

Tue Aug 16, 4:10pm

Tue Aug 16, 3:10pm

Tue Aug 16, 2:10pm

Tue Aug 16, 1:10pm

Tue Aug 16, 12:10pm

Tue Aug 16, 11:10am

Tue Aug 16, 10:10am

Tue Aug 16, 9:10am

Tue Aug 16, 8:10am

Tue Aug 16, 7:10am

Tue Aug 16, 6:10am

Tue Aug 16, 5:10am

Tue Aug 16, 4:10am

Tue Aug 16, 3:10am

Tue Aug 16, 2:10am

Tue Aug 16, 1:10am

Tue Aug 16, 12:10am

Mon Aug 15, 11:10pm

Mon Aug 15, 10:10pm

Mon Aug 15, 9:10pm

Mon Aug 15, 8:10pm

Mon Aug 15, 7:10pm

Mon Aug 15, 6:10pm

Mon Aug 15, 5:10pm

Mon Aug 15, 4:10pm

Mon Aug 15, 3:10pm

Mon Aug 15, 2:10pm

Mon Aug 15, 1:10pm

Mon Aug 15, 12:10pm

Mon Aug 15, 11:10am

Mon Aug 15, 10:10am

Mon Aug 15, 9:10am

Mon Aug 15, 8:10am

Mon Aug 15, 7:10am

Mon Aug 15, 6:10am

Mon Aug 15, 5:10am

Mon Aug 15, 4:10am

Mon Aug 15, 3:10am

Mon Aug 15, 2:10am

Mon Aug 15, 1:10am

Mon Aug 15, 12:10am

Sun Aug 14, 11:10pm

Sun Aug 14, 10:10pm

Sun Aug 14, 9:10pm

Sun Aug 14, 8:10pm

Sun Aug 14, 7:10pm

Sun Aug 14, 6:10pm

Sun Aug 14, 5:10pm

Sun Aug 14, 4:10pm

Sun Aug 14, 3:10pm

Sun Aug 14, 2:10pm

Sun Aug 14, 1:10pm

Sun Aug 14, 12:10pm

Sun Aug 14, 11:10am

Sun Aug 14, 10:10am

Sun Aug 14, 9:10am

Sun Aug 14, 8:10am

Sun Aug 14, 7:10am

Sun Aug 14, 5:10am

Sun Aug 14, 4:10am

Sun Aug 14, 3:10am

Sun Aug 14, 2:10am

Sun Aug 14, 1:10am

Sun Aug 14, 12:10am

Sat Aug 13, 11:10pm

Sat Aug 13, 10:10pm

Sat Aug 13, 9:10pm

Sat Aug 13, 8:10pm

Sat Aug 13, 7:10pm

Sat Aug 13, 6:10pm

Sat Aug 13, 5:10pm

Sat Aug 13, 4:10pm

Sat Aug 13, 3:10pm

Sat Aug 13, 2:10pm

Sat Aug 13, 1:10pm

Sat Aug 13, 12:10pm

Sat Aug 13, 11:10am

Sat Aug 13, 10:10am

Sat Aug 13, 9:10am

Sat Aug 13, 8:10am

Sat Aug 13, 7:10am

Sat Aug 13, 6:10am

Sat Aug 13, 5:10am

Sat Aug 13, 4:10am

Sat Aug 13, 3:10am

Sat Aug 13, 2:10am

Sat Aug 13, 1:10am

Sat Aug 13, 12:10am

Fri Aug 12, 11:10pm

Fri Aug 12, 10:10pm

Fri Aug 12, 9:10pm

Fri Aug 12, 8:10pm

Fri Aug 12, 7:10pm

Fri Aug 12, 6:10pm

Fri Aug 12, 5:10pm

Fri Aug 12, 4:10pm

Fri Aug 12, 3:10pm

Fri Aug 12, 2:10pm

Fri Aug 12, 1:10pm

Fri Aug 12, 12:10pm

Fri Aug 12, 11:10am

Fri Aug 12, 10:10am

Fri Aug 12, 9:10am

Fri Aug 12, 8:10am

Fri Aug 12, 7:10am

Fri Aug 12, 6:10am

Fri Aug 12, 5:10am

Fri Aug 12, 4:10am

Fri Aug 12, 3:10am

Fri Aug 12, 2:10am

Fri Aug 12, 1:10am

Fri Aug 12, 12:10am

Thu Aug 11, 11:10pm

Thu Aug 11, 10:10pm

Thu Aug 11, 9:10pm

Thu Aug 11, 8:10pm

Thu Aug 11, 7:10pm

Thu Aug 11, 6:10pm

Thu Aug 11, 5:10pm

Thu Aug 11, 4:10pm

Thu Aug 11, 3:10pm

Thu Aug 11, 2:10pm

Thu Aug 11, 1:10pm

Thu Aug 11, 12:10pm

Thu Aug 11, 11:10am

Thu Aug 11, 10:10am

Thu Aug 11, 9:10am

Thu Aug 11, 8:10am

Thu Aug 11, 7:10am

Thu Aug 11, 6:10am

Thu Aug 11, 5:10am

Thu Aug 11, 4:10am

Thu Aug 11, 3:10am

Thu Aug 11, 2:10am

Thu Aug 11, 1:10am

Thu Aug 11, 12:10am

Wed Aug 10, 11:10pm

Wed Aug 10, 10:10pm

Wed Aug 10, 9:10pm

Wed Aug 10, 8:10pm

Wed Aug 10, 7:10pm

Meta data:

ID: 79106ce8-8118-4a46-87a5-9b9c5d2a3dc3
Link: https://api.weather.gov/products/79106ce8-8118-4a46-87a5-9b9c5d2a3dc3